Miscellaneous Local Product
Issued by NWS North Platte, NE

Home | Current Version | Previous Version | Graphics & Text | Print | Product List | Glossary On
Versions: 1 2 3 4 5 6 7 8 9 10 11 12 13 14 15 16 17 18 19 20 21 22 23 24 25 26 27 28 29 30 31 32 33 34 35 36 37 38 39 40 41 42 43 44 45 46 47 48 49 50
228
AXUS43 KLBF 221410
MISLBF


WESTERN AND NORTH CENTRAL NEBRASKA HOURLY WEATHER ROUNDUP
NATIONAL WEATHER SERVICE NORTH PLATTE NE
900 AM CDT MON MAY 22 2017

NOTE: "FAIR" INDICATES FEW OR NO CLOUDS BELOW 12,000 FEET WITH NO
SIGNIFICANT WEATHER AND/OR OBSTRUCTIONS TO VISIBILITY.

NOTE: STATIONS NOT REPORTING VARIABLES SUCH AS SKY/WEATHER OR
PRESSURE ARE PROVIDED BY RAWS AND APRS NETWORKS AND ARE NOT UNDER
NATIONAL WEATHER SERVICE QUALITY CONTROL.

...OBSERVATIONS IN AND NEAR THE EASTERN PANHANDLE OF NEBRASKA...

CITY           SKY/WX    TMP DP  RH WIND       PRES   REMARKS
PINE RIDGE     CLOUDY    48  43  82 NW5       30.05R
GORDON         PTSUNNY   52  44  74 W8        30.03S
CHADRON        CLOUDY    49  41  74 W10       30.06F
ALLIANCE       SUNNY     51  43  74 W16       30.05F
SIDNEY         SUNNY     52  43  71 W9        30.11F
CRESCENT LAKE    N/A     53  42  67 W10         N/A
$$

...OBSERVATIONS IN NORTHERN NEBRASKA AND FAR SOUTHERN SOUTH DAKOTA...

CITY           SKY/WX    TMP DP  RH WIND       PRES   REMARKS
WINNER         FAIR      54  44  69 NW17      29.97R
VALENTINE      MOSUNNY   58  42  55 NW13      30.00S
THEDFORD       SUNNY     57  46  66 W13G18    30.03S
AINSWORTH      SUNNY     56  45  65 NW17      30.01R
O`NEILL        SUNNY     58  44  58 W14       29.97S
ORD            SUNNY     56  45  66 W6        29.99F
BROKEN BOW     SUNNY     56  47  71 W10       30.02F
VALENTINE NWR    N/A     52  43  71 W9          N/A
HALSEY           N/A     54  42  64 W8          N/A
BUTTE            N/A     56  46  68 N9G17       N/A
CHAMBERS         N/A     64  46  53 CALM        N/A
EWING            N/A     58  49  73 W7          N/A
$$

...OBSERVATIONS IN SOUTHWEST NEBRASKA AND FAR NORTHEAST COLORADO...

CITY           SKY/WX    TMP DP  RH WIND       PRES   REMARKS
WRAY           FAIR      54  50  87 W9        30.11S
IMPERIAL       CLOUDY    56  45  66 W14       30.08F
OGALLALA       SUNNY     51  46  83 W9        30.08F
NORTH PLATTE   SUNNY     54  46  74 W9        30.06F
MCCOOK         CLOUDY    55  48  77 W10       30.06F
LEXINGTON      CLOUDY    56  46  70 NW10      30.04F
STAPLETON        N/A     56  48  73 CALM        N/A
GOTHENBURG       N/A     50  42  74 W3          N/A
CALLAWAY         N/A     50  44  79 W8          N/A
$$

...OBSERVATIONS IN CENTRAL LINCOLN COUNTY AREA...

CITY           SKY/WX    TMP DP  RH WIND       PRES   REMARKS
N.P. AIRPORT   SUNNY     54  46  74 W9        30.06F
N.P. DOWNTOWN    N/A     53  46  77 W5          N/A
N.P. SOUTHEAST   N/A     53  44  72 NW3G12      N/A
N.P. HILLCREST   N/A     51  45  81 NW7         N/A
$$

...SOME OBSERVATIONS FROM AROUND THE REGION...

CITY           SKY/WX    TMP DP  RH WIND       PRES   REMARKS
DENVER         MOSUNNY   50  44  80 SW9       30.19S
LIMON          CLOUDY    50  44  80 NW14      30.18S
ASPEN          CLOUDY    42  37  82 CALM      30.28S
LARAMIE        CLOUDY    39  34  82 CALM      30.22F
CASPER         CLOUDY    46  36  68 W8        30.16S
CHEYENNE       SUNNY     49  33  54 NW15G21   30.17F
SCOTTSBLUFF    CLOUDY    47  32  56 NW9       30.10F
GRAND ISLAND   SUNNY     60  49  66 W10       30.01F
OMAHA          CLOUDY    63  48  58 W8        29.95F
SIOUX FALLS    MOSUNNY   55  47  74 NW7       29.89S
PIERRE         LGT RAIN  50  47  89 NW16      29.93S
RAPID CITY     SUNNY     53  44  71 N8        30.02R
BISMARCK       CLOUDY    50  37  61 NW7       29.96R
KANSAS CITY    CLOUDY    65  54  67 SW10      30.05F
HILL CITY      CLOUDY    58  54  86 W5        30.06F
WICHITA        CLOUDY    61  55  81 S8        30.09S
DODGE CITY     CLOUDY    58  53  84 SW10      30.10R
OKLAHOMA CITY  PTSUNNY   65  52  62 S7        30.12R
DALLAS         CLOUDY    67  61  81 E7        30.07S
AMARILLO       CLOUDY    56  50  80 E14       30.11F
$$




USA.gov is the U.S. government's official web portal to all federal, state and local government web resources and services.